Wetbulb
64.35 64.93 65.34 65.61 65.78 65.97 65.70 66.09 66.47 66.88 67.33 67.39 67.60 67.87 67.94 68.56 71.25 72.73 72.94 73.52 73.08 72.22 72.11 72.14 72.56 73.30 72.29 72.59 73.94 72.13 71.68 71.35 68.49 70.49 72.48 74.39 74.59 73.10 73.28 75.14 75.67 76.05 75.03
63.58 63.79 64.35 64.88 64.79 64.55 65.51 66.02 66.26 66.26 67.12 67.17 66.96 66.94 67.30 67.53 68.97 70.68 71.11 71.79 72.77 71.61 71.62 71.17 71.16 71.56 71.89 70.57 71.44 71.85 69.22 72.92 70.67 70.11 72.04 72.40 73.95 74.98 74.54 74.93 74.92 74.91 75.18
62.58 63.06 63.83 63.85 64.40 65.25 65.58 65.77 65.86 65.82 65.99 66.07 66.52 66.17 66.53 66.74 67.68 69.29 70.39 70.68 72.12 72.58 73.10 71.95 71.20 70.59 70.77 70.88 71.34 71.25 69.65 70.88 71.44 69.74 70.60 72.55 72.72 73.49 73.56 74.65 75.17 75.68 75.39
62.01 62.61 62.08 62.30 64.13 64.50 65.24 65.56 65.71 66.10 65.68 65.65 65.63 66.16 66.59 65.95 66.20 67.21 68.75 69.94 71.00 71.77 72.72 73.44 72.34 72.33 70.52 69.87 68.53 68.89 69.19 69.43 69.52 68.71 70.43 71.17 71.67 73.69 72.98 71.62 72.02 74.04 73.63
62.07 62.15 61.17 61.36 62.51 63.58 64.25 64.84 65.39 65.71 65.73 64.99 65.32 65.52 65.06 64.12 62.91 64.51 67.35 68.57 68.80 70.11 71.86 72.23 72.88 72.02 69.13 68.70 67.45 67.75 68.18 68.68 69.21 67.51 67.40 68.54 69.90 70.32 70.41 71.24 71.28 72.23 74.64
61.81 60.78 60.80 61.50 63.03 63.77 64.06 64.70 65.39 65.31 64.34 63.95 63.42 61.96 60.75 61.20 61.26 61.38 63.80 66.81 67.30 69.41 70.43 71.69 71.56 68.36 67.02 63.81 63.86 64.56 67.46 67.83 67.34 65.98 67.11 67.59 69.50 70.00 71.22 71.06 71.54 70.85 69.65
61.48 60.86 60.85 61.86 62.82 63.83 64.45 64.99 65.02 64.03 63.00 62.45 61.53 58.18 62.15 62.40 60.40 59.59 61.42 65.12 65.92 67.79 70.01 71.27 70.75 69.81 67.25 67.80 63.58 63.43 64.04 63.69 65.71 70.88 68.28 68.35 69.64 71.41 72.99 71.42 72.28 72.18 71.19
60.40 60.40 60.99 62.29 62.91 64.15 64.82 65.05 65.21 64.14 61.50 61.00 58.59 57.88 61.51 63.04 60.01 58.50 60.19 65.47 67.63 66.37 69.26 69.75 70.22 70.15 69.09 68.58 68.43 67.77 68.04 69.95 69.40 68.26 68.61 70.50 72.60 72.88 74.82 73.97 74.04 74.27 73.83
59.45 60.65 62.12 62.78 63.07 64.07 64.03 63.92 64.80 64.48 61.74 61.59 58.65 56.29 58.04 60.53 57.68 56.81 59.18 65.12 65.64 65.74 66.73 68.52 69.00 68.79 63.42 60.71 67.09 66.79 67.42 67.82 64.98 62.27 63.64 63.75 63.76 62.48 68.63 74.33 71.29 71.29 69.63
60.49 61.79 62.77 63.51 63.71 63.28 62.68 62.53 64.57 64.43 61.67 61.26 57.80 57.01 57.21 58.59 56.15 53.61 57.70 64.00 64.66 65.11 66.29 66.84 61.44 66.01 59.00 57.74 65.70 67.18 66.49 67.42 67.94 67.35 68.44 65.34 64.85 68.68 62.25 72.77 73.61 70.08 69.72
62.27 63.16 63.58 63.73 63.22 63.16 61.25 63.22 63.78 63.12 62.03 61.79 58.04 57.87 56.30 58.03 58.31 52.39 51.50 62.03 65.30 64.95 64.36 64.10 66.09 57.92 55.40 55.04 56.45 67.32 66.48 69.07 64.89 66.05 66.28 67.32 69.74 69.92 69.87 68.14 71.80 72.27 70.15
63.28 63.30 63.19 63.44 62.72 61.83 60.49 62.73 62.95 62.16 61.68 61.02 57.45 57.07 56.01 57.36 55.41 52.96 51.11 54.82 59.89 64.57 64.18 66.18 64.99 55.76 54.31 54.31 56.31 57.57 53.22 59.07 66.39 65.37 65.86 67.53 68.14 68.52 69.88 70.87 69.96 72.55 73.00
63.53 63.37 63.26 63.59 62.93 62.98 59.82 60.54 61.33 61.52 60.27 60.79 58.23 55.57 56.01 57.22 58.43 52.15 51.26 52.33 57.39 61.64 61.84 55.72 53.33 51.77 52.32 55.40 53.04 52.68 53.59 61.08 62.46 63.36 64.32 65.75 67.98 69.95 70.94 71.32 71.31 71.44 72.14
63.04 62.76 63.42 63.26 61.96 62.40 60.28 59.63 61.57 60.32 59.36 59.01 58.31 55.37 55.46 56.95 57.17 52.45 52.15 53.27 59.71 61.50 60.57 61.46 59.37 58.80 57.17 58.96 59.67 59.36 60.82 63.57 63.25 63.14 64.95 66.30 67.57 67.55 66.85 67.16 66.12 66.14 65.72
62.27 62.56 62.66 61.20 61.52 61.14 61.39 62.05 61.85 61.70 55.58 54.24 54.62 53.64 56.09 54.98 53.79 44.98 45.92 50.09 52.59 56.27 60.30 62.00 62.45 63.03 62.14 60.32 59.29 59.00 59.17 59.29 60.25 60.85 61.01 60.49 60.69 61.40 62.16 64.72 65.58 65.74 63.68
61.36 61.65 61.12 61.02 60.35 59.76 60.40 62.07 50.95 50.26 45.20 42.50 41.93 44.56 52.33 47.79 43.93 45.23 45.25 44.52 47.95 51.48 60.92 61.11 61.41 61.24 61.11 60.09 56.81 55.19 56.79 58.13 58.54 59.58 59.32 59.36 58.88 59.40 58.88 59.47 61.87 60.49 59.83
61.60 62.19 61.86 59.46 60.11 59.04 58.76 59.19 58.74 55.14 46.01 44.16 41.99 41.80 41.99 42.10 42.54 43.89 44.68 46.78 48.65 55.10 61.11 61.04 61.49 61.97 61.88 61.86 60.67 59.22 58.63 57.88 59.10 58.44 58.92 59.08 59.24 59.70 59.08 58.98 59.04 58.60 58.53
62.42 54.78 60.65 60.89 60.14 58.91 58.89 59.80 59.44 60.56 58.58 58.04 51.03 47.92 44.98 43.13 42.65 44.72 45.61 53.22 59.56 59.63 61.43 60.76 60.37 61.18 61.74 61.49 60.87 59.54 59.48 59.62 59.98 60.24 60.56 60.54 60.61 59.91 59.02 59.35 59.96 59.52 59.18
61.37 61.57 61.51 61.36 60.80 55.27 56.86 59.61 60.15 59.73 57.79 57.90 57.33 53.26 52.04 46.14 45.95 45.93 47.99 56.78 56.58 57.02 58.58 58.72 60.44 61.04 61.34 62.24 62.35 61.81 61.24 60.57 60.26 60.16 60.02 60.72 60.77 59.53 58.74 58.70 58.05 52.41 55.39
62.04 56.69 56.32 60.55 59.37 59.34 58.69 59.18 59.37 57.86 56.49 54.81 54.17 55.30 57.06 54.35 55.13 54.88 55.76 54.98 54.42 54.41 55.51 57.03 55.16 56.63 59.52 59.39 59.67 60.12 59.47 58.44 59.53 60.13 60.32 60.45 61.55 61.24 60.85 60.32 60.23 58.83 58.41
60.85 60.50 55.08 59.09 56.47 59.30 58.75 58.01 57.14 58.13 56.86 56.01 54.38 51.94 42.52 55.04 54.18 53.80 53.69 53.52 53.18 53.29 52.80 54.66 55.31 55.90 56.84 55.83 55.84 55.11 53.99 54.77 54.77 55.08 55.11 54.24 56.43 58.73 60.47 61.22 60.93 61.66 61.65
58.53 58.91 59.00 58.80 59.02 58.71 58.51 57.78 56.69 56.44 56.22 55.60 54.91 52.45 44.54 53.21 52.55 51.77 51.67 52.05 52.67 52.73 53.17 53.21 53.29 53.43 53.65 54.12 53.55 49.38 49.03 49.43 49.73 51.34 49.39 50.63 53.13 52.65 53.12 52.00 54.79 56.25 56.95
55.82 55.94 56.90 56.98 57.21 53.78 56.16 55.95 54.98 55.56 55.26 54.99 54.63 53.66 53.08 52.56 52.03 51.60 51.47 51.93 52.14 52.27 52.96 52.51 52.40 52.59 53.29 52.78 52.72 52.56 50.98 49.11 48.43 49.25 47.70 48.28 49.50 47.21 47.37 48.61 49.65 50.16 50.07
54.20 55.72 54.98 53.33 52.74 52.70 52.16 52.08 50.79 47.28 52.13 51.95 51.15 50.16 49.79 49.85 49.71 49.73 49.96 50.58 51.00 51.58 51.75 52.16 52.47 52.16 52.35 52.43 51.99 50.96 48.70 46.90 50.59 50.63 51.14 50.68 50.12 49.11 49.81 49.10 48.20 46.05 46.90
51.96 51.57 50.74 51.60 51.25 50.64 50.71 50.23 49.78 49.36 48.98 48.69 48.65 48.88 49.19 49.31 48.85 48.78 48.81 49.10 49.16 48.98 49.06 49.47 49.69 50.65 51.51 51.84 51.48 49.51 34.37 30.30 40.69 35.01 49.63 49.98 49.46 49.28 49.17 48.77 48.56 48.43 48.35
51.07 50.80 50.10 49.43 49.64 49.57 49.24 48.52 48.42 48.47 48.05 47.97 47.99 47.96 47.89 47.62 47.66 47.62 47.57 47.44 47.12 47.35 47.38 47.72 47.70 47.77 48.24 49.68 45.33 35.26 31.43 30.14 36.56 30.95 42.95 47.77 46.97 46.92 46.81 46.15 46.31 46.50 46.76
MSLP
1016.30 1016.45 1016.46 1016.26 1016.00 1015.74 1015.41 1014.97 1014.61 1014.23 1013.87 1013.49 1013.04 1012.59 1012.11 1011.59 1011.05 1010.47 1010.04 1009.77 1009.74 1009.79 1010.00 1010.17 1010.22 1010.44 1010.71 1011.10 1011.51 1011.76 1011.74 1011.68 1011.47 1010.76 1011.02 1011.18 1011.79 1012.07 1011.86 1011.79 1011.89 1011.91 1011.73
1016.23 1016.35 1016.16 1015.91 1015.65 1015.34 1014.94 1014.50 1014.18 1013.75 1013.32 1012.92 1012.52 1012.04 1011.47 1010.93 1010.43 1009.81 1009.08 1008.80 1008.50 1008.52 1008.77 1009.09 1009.11 1009.51 1009.82 1010.32 1010.38 1010.00 1010.70 1010.03 1009.19 1009.49 1009.77 1010.12 1010.52 1011.19 1011.26 1011.27 1011.21 1010.95 1010.95
1016.13 1016.06 1015.92 1015.60 1015.22 1014.87 1014.43 1013.97 1013.57 1013.16 1012.75 1012.23 1011.80 1011.23 1010.60 1009.94 1009.41 1008.77 1008.13 1007.78 1007.54 1007.17 1007.26 1007.65 1007.88 1008.42 1008.68 1009.04 1009.19 1009.41 1009.48 1009.62 1008.89 1008.57 1008.58 1009.14 1008.95 1009.89 1010.31 1010.69 1010.54 1010.41 1010.30
1015.81 1015.62 1015.51 1015.11 1014.63 1014.18 1013.73 1013.29 1012.91 1012.59 1012.11 1011.54 1011.05 1010.31 1009.53 1008.83 1008.28 1007.76 1006.99 1006.51 1006.36 1006.15 1005.98 1006.09 1006.54 1006.87 1007.28 1007.82 1008.27 1008.39 1008.83 1008.74 1008.80 1008.78 1008.49 1008.41 1008.35 1008.56 1009.49 1009.39 1009.59 1009.53 1009.31
1015.40 1015.27 1015.00 1014.72 1014.19 1013.68 1013.17 1012.67 1012.28 1011.93 1011.45 1010.89 1010.00 1009.00 1008.06 1007.08 1006.49 1006.26 1005.69 1005.13 1005.03 1004.93 1004.88 1004.93 1005.32 1005.61 1006.08 1006.70 1007.13 1007.51 1008.05 1008.33 1008.33 1008.47 1008.40 1008.42 1007.67 1008.02 1008.34 1008.17 1008.81 1008.38 1008.44
1015.22 1015.02 1014.72 1014.33 1013.70 1013.08 1012.56 1012.19 1011.83 1011.38 1010.92 1010.16 1009.13 1007.86 1006.18 1005.11 1004.70 1004.80 1004.72 1004.23 1004.09 1003.88 1003.93 1004.05 1004.42 1005.09 1005.71 1006.24 1006.53 1006.70 1006.88 1007.21 1007.59 1007.98 1007.91 1007.57 1007.21 1007.68 1007.97 1007.57 1007.86 1007.85 1007.55
1014.96 1014.72 1014.20 1013.64 1013.15 1012.71 1012.29 1011.79 1011.20 1010.72 1010.25 1009.51 1008.50 1006.96 1004.73 1003.94 1003.58 1003.64 1003.73 1003.66 1003.38 1003.19 1003.17 1003.18 1003.56 1003.96 1004.96 1005.43 1006.05 1006.27 1006.55 1006.54 1006.51 1006.65 1006.62 1006.68 1006.69 1006.99 1007.44 1007.39 1007.33 1007.40 1007.06
1014.35 1013.99 1013.71 1013.45 1012.92 1012.30 1011.73 1011.12 1010.56 1010.22 1009.78 1009.14 1008.17 1006.24 1004.66 1003.25 1002.78 1002.69 1002.78 1002.61 1002.21 1002.23 1002.17 1002.21 1002.58 1003.18 1003.89 1004.45 1004.84 1005.27 1005.38 1005.40 1005.72 1006.04 1005.94 1006.06 1006.02 1006.51 1006.72 1006.79 1006.70 1007.15 1006.96
1014.02 1013.80 1013.45 1013.18 1012.53 1011.91 1011.34 1010.77 1010.16 1009.73 1009.42 1008.76 1007.88 1006.45 1005.20 1003.81 1002.88 1002.16 1001.69 1001.34 1001.31 1001.37 1001.64 1001.86 1002.23 1002.67 1003.16 1003.70 1004.18 1004.20 1004.33 1004.20 1004.63 1004.94 1005.21 1005.20 1005.57 1005.78 1006.17 1006.52 1006.47 1006.68 1005.99
1013.49 1013.24 1013.10 1012.62 1012.05 1011.53 1011.38 1010.76 1010.11 1009.48 1009.06 1008.63 1007.63 1006.57 1005.19 1003.98 1003.11 1002.38 1001.12 1000.47 1000.52 1000.85 1001.17 1001.42 1001.91 1002.17 1002.68 1003.45 1003.65 1003.47 1003.34 1003.31 1004.14 1004.62 1005.03 1004.84 1005.30 1005.20 1005.51 1005.91 1005.90 1005.88 1005.07
1012.90 1012.71 1012.31 1012.00 1011.77 1011.41 1011.33 1010.66 1010.01 1009.42 1008.93 1008.14 1007.47 1006.37 1005.26 1003.97 1002.89 1002.08 1001.30 1000.51 1000.10 1000.30 1000.67 1001.20 1001.48 1002.04 1002.30 1002.82 1003.30 1003.04 1002.89 1003.04 1003.78 1004.11 1004.22 1004.41 1004.07 1004.33 1004.65 1005.11 1005.23 1005.24 1004.80
1012.32 1012.10 1011.74 1011.50 1011.46 1011.29 1011.01 1010.47 1009.99 1009.51 1008.96 1008.25 1007.73 1006.58 1005.32 1003.89 1002.97 1002.22 1001.54 1000.88 1000.29 1000.27 1000.62 1000.96 1001.21 1001.59 1002.00 1002.60 1003.06 1003.13 1003.26 1003.35 1003.65 1003.74 1003.73 1003.41 1003.34 1003.31 1003.04 1003.99 1004.73 1004.76 1004.74
1011.75 1011.67 1011.51 1011.15 1011.13 1010.88 1010.53 1010.47 1010.02 1009.35 1009.04 1008.30 1008.05 1006.94 1005.92 1004.63 1003.53 1003.06 1002.14 1001.36 1000.55 1000.53 1000.76 1001.34 1001.75 1002.03 1002.26 1002.66 1003.18 1003.19 1003.47 1003.46 1003.44 1003.48 1003.27 1003.18 1003.08 1002.85 1003.09 1003.56 1003.97 1004.21 1004.33
1011.49 1011.34 1011.06 1010.64 1010.47 1010.16 1010.23 1010.03 1009.83 1009.38 1009.24 1009.06 1008.51 1007.82 1006.79 1005.70 1004.85 1003.88 1002.84 1002.62 1001.73 1001.12 1001.47 1001.59 1002.01 1002.37 1002.68 1002.78 1002.84 1002.99 1003.33 1002.89 1002.77 1002.81 1002.77 1002.64 1002.72 1002.77 1002.83 1003.12 1003.41 1003.84 1004.12
1011.22 1010.92 1010.56 1010.06 1010.02 1009.84 1010.09 1010.00 1009.40 1009.50 1010.16 1010.33 1009.80 1008.85 1008.00 1007.18 1006.33 1006.14 1005.08 1004.53 1003.83 1003.01 1002.09 1002.44 1002.55 1002.77 1003.20 1003.71 1003.87 1003.89 1003.84 1003.73 1003.36 1003.08 1002.98 1003.08 1003.15 1003.17 1003.28 1003.19 1003.14 1003.70 1003.90
1010.72 1010.25 1010.04 1009.95 1009.69 1009.42 1009.63 1009.30 1009.76 1009.90 1010.27 1010.57 1010.46 1009.99 1008.59 1008.39 1007.31 1006.81 1006.35 1005.76 1004.38 1003.39 1003.12 1002.81 1002.93 1003.39 1003.78 1004.39 1004.86 1004.52 1004.76 1004.77 1004.40 1004.32 1004.06 1003.99 1003.96 1004.37 1003.87 1003.96 1004.33 1004.34 1004.62
1010.39 1010.15 1009.81 1009.69 1009.49 1009.35 1009.30 1009.03 1009.12 1009.98 1010.20 1009.98 1010.05 1009.89 1009.40 1008.85 1007.85 1006.68 1006.02 1005.31 1004.82 1004.05 1003.92 1003.83 1003.71 1004.03 1004.31 1004.71 1005.16 1005.52 1005.30 1005.02 1005.47 1005.21 1005.02 1004.81 1004.80 1004.87 1004.72 1005.26 1005.16 1005.15 1005.59
1010.03 1009.90 1009.73 1009.36 1009.34 1009.32 1009.22 1008.92 1009.07 1009.17 1009.46 1009.64 1009.63 1009.60 1009.34 1008.91 1008.52 1007.49 1006.77 1005.94 1005.97 1005.58 1005.24 1005.02 1004.99 1005.16 1005.08 1005.17 1005.52 1005.79 1005.93 1005.79 1005.67 1005.32 1005.04 1005.02 1004.90 1004.81 1005.13 1005.59 1005.73 1005.67 1005.76
1009.52 1009.33 1009.34 1009.19 1009.29 1009.48 1009.25 1009.04 1009.08 1009.33 1009.58 1009.47 1009.54 1009.47 1009.37 1009.13 1008.78 1008.26 1007.91 1007.76 1007.69 1007.25 1006.80 1006.62 1006.46 1006.13 1006.15 1006.01 1005.91 1006.16 1006.26 1006.28 1006.32 1006.10 1005.93 1005.74 1005.58 1005.59 1005.81 1006.14 1006.06 1006.09 1006.11
1009.26 1009.34 1009.30 1009.18 1009.18 1009.25 1009.31 1009.19 1009.40 1009.72 1010.02 1010.11 1010.12 1009.98 1009.49 1009.01 1008.79 1009.00 1008.95 1008.78 1008.49 1008.20 1007.94 1007.96 1008.00 1007.83 1007.45 1007.34 1006.98 1006.81 1006.85 1006.96 1006.74 1006.52 1006.43 1006.35 1006.27 1006.27 1006.05 1006.12 1005.96 1005.82 1006.18
1008.95 1009.11 1009.16 1009.16 1009.37 1009.29 1009.54 1009.72 1009.89 1009.82 1010.06 1010.37 1010.85 1011.33 1011.08 1010.14 1010.10 1010.04 1009.83 1009.82 1009.70 1009.66 1009.61 1009.11 1008.89 1008.94 1008.64 1008.67 1008.29 1008.20 1008.21 1008.00 1007.93 1007.73 1007.64 1007.73 1007.42 1007.05 1007.01 1006.64 1006.31 1006.12 1006.10
1009.01 1009.08 1009.19 1009.27 1009.54 1009.80 1009.93 1010.18 1010.40 1010.64 1010.70 1010.85 1011.16 1011.45 1011.24 1010.84 1010.83 1010.71 1010.77 1010.61 1010.60 1010.61 1010.42 1010.33 1010.14 1010.09 1009.85 1009.64 1009.58 1009.85 1009.77 1009.69 1009.55 1009.30 1009.31 1008.91 1008.47 1008.26 1008.15 1007.95 1007.45 1007.41 1007.47
1009.64 1009.45 1009.53 1009.85 1010.24 1010.56 1010.61 1010.91 1011.21 1011.30 1011.48 1011.61 1011.69 1011.68 1011.63 1011.67 1011.69 1011.78 1011.74 1011.72 1011.72 1011.52 1011.37 1011.19 1010.86 1010.72 1010.75 1010.64 1010.63 1010.55 1010.53 1010.62 1010.46 1010.27 1010.06 1009.83 1009.37 1009.42 1009.19 1008.78 1008.54 1008.30 1008.38
1009.88 1009.77 1010.05 1010.52 1010.82 1011.04 1011.22 1011.46 1011.90 1012.18 1012.17 1012.31 1012.41 1012.51 1012.62 1012.62 1012.54 1012.60 1012.52 1012.41 1012.23 1011.94 1011.69 1011.54 1011.49 1011.46 1011.40 1011.28 1011.30 1011.36 1011.66 1011.74 1010.97 1010.57 1010.45 1010.07 1009.74 1009.65 1009.34 1009.14 1009.03 1009.09 1008.72
1010.18 1010.60 1010.96 1011.11 1011.35 1011.65 1011.84 1012.16 1012.42 1012.61 1012.79 1012.91 1012.91 1012.92 1012.89 1012.92 1012.87 1012.88 1013.02 1012.99 1012.80 1012.57 1012.42 1012.20 1011.99 1011.86 1011.73 1011.88 1011.84 1011.97 1013.04 1012.93 1012.30 1012.13 1010.83 1010.49 1010.21 1010.01 1009.68 1009.43 1009.20 1009.01 1008.61
1010.89 1011.19 1011.49 1011.83 1012.06 1012.34 1012.60 1012.90 1013.10 1013.32 1013.42 1013.57 1013.56 1013.62 1013.58 1013.52 1013.52 1013.60 1013.68 1013.54 1013.38 1013.17 1013.04 1012.79 1012.65 1012.53 1012.21 1011.72 1012.57 1013.20 1013.19 1013.05 1012.58 1012.55 1011.77 1010.75 1010.54 1010.27 1009.97 1009.86 1009.46 1009.21 1008.78
Wind_Speed
5 5 7 8 9 9 9 10 11 12 12 13 14 15 16 16 16 16 17 18 17 15 15 15 16 15 11 10 9 12 13 11 11 14 14 11 11 10 9 10 10 10 9
5 7 9 9 9 10 10 11 11 12 12 13 14 15 16 17 16 18 19 18 19 17 16 16 17 12 17 15 12 19 16 17 15 18 14 13 12 12 12 12 11 10 11
5 7 9 10 9 10 12 12 12 13 14 15 15 16 17 17 18 18 19 19 19 20 19 17 18 17 16 15 16 16 14 13 13 12 14 13 12 10 11 11 11 11 10
6 7 9 11 11 12 12 13 13 13 15 16 17 18 19 19 20 20 20 18 19 19 20 20 21 20 20 19 16 16 11 13 12 10 12 14 11 11 10 9 10 10 10
7 9 10 11 12 13 13 13 13 13 14 17 19 20 22 21 15 19 21 19 17 19 19 19 20 22 24 18 14 14 12 11 9 9 11 10 11 10 12 9 12 8 8
8 9 10 11 12 13 13 13 12 12 14 18 20 21 24 15 20 22 22 16 15 18 17 18 18 18 17 15 16 14 15 13 15 11 12 10 14 12 11 9 10 9 9
8 9 10 11 13 13 13 12 10 12 15 18 19 22 18 13 14 17 20 15 14 15 17 16 15 13 17 17 20 20 21 20 19 14 16 13 12 11 12 9 11 10 9
8 10 10 11 12 13 12 10 10 10 14 15 17 21 20 12 15 17 21 19 16 15 19 18 16 13 15 16 16 16 18 17 16 13 14 12 12 10 12 11 11 11 8
9 10 11 11 11 11 12 11 11 9 12 13 14 21 19 15 18 12 15 13 13 14 12 11 14 14 13 16 15 15 15 16 12 13 13 11 13 13 10 7 7 9 8
8 11 10 10 9 11 10 11 9 7 11 10 12 16 19 14 13 18 12 6 9 8 9 12 13 14 10 13 15 15 15 14 12 7 12 7 13 12 12 13 8 10 11
8 8 9 9 10 10 7 9 8 8 10 11 14 13 16 15 14 19 18 6 6 6 6 7 7 14 12 16 15 13 13 9 8 6 6 7 9 11 9 9 11 11 10
7 8 9 8 7 6 6 9 9 8 10 11 11 12 12 15 17 20 23 12 6 3 4 3 2 10 12 11 9 12 2 3 4 5 7 12 11 11 10 11 11 12 10
8 8 9 9 5 5 4 8 9 8 7 9 6 11 12 12 12 17 21 20 8 4 4 8 10 11 9 7 3 7 7 5 6 8 9 8 8 8 9 9 11 11 11
9 9 8 8 7 4 4 3 4 7 8 7 9 9 10 11 12 14 10 11 9 6 6 9 12 13 13 11 10 12 9 4 4 6 6 4 4 5 6 6 4 5 5
8 8 7 6 6 5 5 5 3 3 4 5 6 9 8 10 11 14 12 9 9 11 8 7 8 9 9 8 8 9 9 10 7 6 6 6 6 6 4 2 2 2 2
7 6 4 6 6 4 5 2 4 2 2 1 6 6 8 6 13 13 11 11 9 8 5 8 11 11 10 10 8 9 7 9 8 7 7 7 7 7 7 6 5 6 4
7 6 6 5 5 3 5 4 4 4 3 3 2 2 3 8 13 13 11 9 17 10 11 11 10 10 9 9 7 6 5 4 5 4 4 3 4 3 6 3 5 4 4
6 8 7 5 4 3 4 3 3 3 4 5 6 8 11 12 12 14 13 11 12 12 11 11 10 9 8 8 7 6 5 3 3 3 6 7 7 7 7 4 4 5 5
5 4 4 2 2 1 2 3 3 5 5 6 5 6 10 12 8 15 14 11 9 10 11 11 10 10 9 8 8 7 7 7 7 6 7 7 6 5 5 4 4 6 4
5 4 5 1 1 1 2 4 5 6 6 6 7 8 8 8 13 12 11 10 10 10 11 11 8 8 9 10 9 7 8 9 9 8 8 6 5 5 5 4 3 3 3
4 3 1 2 2 4 4 6 5 5 6 7 8 8 10 9 9 10 10 11 11 10 10 11 10 10 9 10 9 9 9 9 9 9 9 9 10 8 7 5 5 4 2
3 2 2 4 5 5 7 7 6 6 6 6 6 8 10 9 9 9 9 10 9 9 9 9 8 9 9 10 9 8 9 10 10 9 7 8 8 7 8 7 7 6 8
1 5 6 6 7 7 7 7 6 6 6 6 6 6 7 7 8 8 8 8 7 8 8 8 8 7 7 8 9 9 8 7 7 7 7 8 8 7 6 7 7 7 6
3 7 7 7 6 7 7 8 8 8 7 6 6 7 7 6 7 8 7 7 8 8 8 8 7 9 8 7 6 6 7 8 7 8 9 8 7 7 6 6 5 5 6
8 8 8 7 7 7 8 8 7 7 7 6 6 6 6 6 6 7 7 7 7 7 8 8 8 11 10 9 9 10 9 7 8 10 8 8 9 10 8 8 8 8 9
8 8 8 7 7 7 7 6 6 6 6 5 5 5 5 5 6 6 7 8 8 9 10 8 9 12 12 9 12 11 9 9 9 10 10 8 9 9 8 10 12 10 11
Wind_Direction
338 316 297 292 296 295 292 293 296 301 299 296 294 290 287 282 275 263 251 243 234 224 225 226 225 220 219 220 225 239 235 215 235 258 260 253 233 239 245 239 240 233 241
304 294 293 295 300 295 294 297 296 295 297 294 293 289 286 280 273 269 262 249 237 225 221 220 222 218 216 215 213 214 225 222 210 234 238 240 227 240 241 237 237 241 245
290 295 298 302 302 299 299 296 294 294 295 297 294 287 283 279 274 264 262 254 245 231 218 214 216 214 217 211 218 216 226 235 222 230 241 233 231 222 229 239 237 235 240
284 306 308 311 310 303 297 291 292 296 297 302 296 287 279 274 269 266 259 255 246 242 224 218 217 217 216 211 217 225 236 242 242 235 235 239 223 215 225 238 231 224 235
317 312 309 310 309 304 300 303 301 300 302 304 298 287 283 270 256 254 252 250 243 241 233 221 219 223 220 218 221 228 230 237 235 241 231 231 229 215 220 215 241 241 219
306 303 307 304 307 309 309 303 305 310 318 312 312 299 290 270 256 238 249 252 249 236 231 225 224 218 226 216 220 230 235 237 237 230 227 224 226 222 232 225 230 225 235
293 294 303 313 309 308 307 304 310 326 326 324 318 321 304 275 248 236 240 246 247 241 232 232 221 219 211 221 222 220 233 242 240 237 229 222 226 215 231 213 223 226 220
304 307 303 302 303 308 306 319 314 324 336 326 318 338 326 288 252 236 238 245 241 232 231 233 230 219 213 213 220 217 227 235 230 225 232 229 224 225 224 216 218 230 233
295 291 291 304 309 321 323 323 315 311 332 328 324 342 325 325 329 294 249 240 230 226 230 222 219 222 209 198 220 226 229 236 226 214 223 221 229 226 223 219 209 216 217
275 283 303 304 303 310 320 317 324 324 322 316 324 338 323 327 342 340 296 220 209 210 207 215 208 221 197 198 214 225 229 230 222 208 225 246 251 239 203 220 227 227 232
275 295 305 318 316 312 304 320 323 327 319 337 338 330 332 333 342 354 350 274 207 205 191 207 209 206 207 207 216 227 232 232 193 198 235 225 230 225 211 215 214 226 228
290 301 305 319 327 322 299 348 339 331 323 332 345 332 334 341 353 358 357 333 284 183 196 193 178 211 219 216 204 246 227 229 231 208 221 238 235 230 221 214 217 227 221
295 295 299 308 329 329 16 344 329 340 329 340 341 329 332 340 348 5 358 348 45 73 82 100 107 97 104 99 221 266 274 231 230 233 237 235 228 227 223 221 223 221 222
280 289 295 308 318 340 303 255 308 336 339 355 340 325 332 341 358 357 350 5 348 79 106 87 86 87 71 72 64 53 29 352 223 225 228 202 184 200 193 182 165 164 160
268 278 296 311 322 333 298 273 310 352 345 340 329 320 349 347 346 335 355 356 333 27 48 60 69 70 69 64 59 48 43 17 22 39 51 59 48 34 12 24 82 160 143
262 279 307 311 312 310 303 314 173 200 280 280 287 299 332 333 334 343 340 312 10 20 62 66 75 73 70 69 60 54 40 41 14 26 51 53 55 39 50 23 31 61 34
255 288 293 284 293 308 300 330 346 153 223 292 358 146 9 295 339 8 355 13 28 32 53 54 58 64 59 67 67 76 67 26 8 5 49 81 101 103 67 71 61 58 49
257 260 273 280 273 299 300 332 346 33 44 28 53 26 8 5 8 27 7 36 35 31 37 42 49 46 47 68 71 64 75 88 81 23 51 51 56 61 65 66 93 109 124
257 245 285 315 245 287 316 48 54 68 66 68 36 36 20 9 4 42 34 44 38 39 35 29 24 33 32 41 46 52 48 48 42 41 40 38 39 54 68 60 71 52 44
216 255 260 237 214 17 58 78 89 86 86 69 46 28 20 31 41 38 39 34 32 32 30 36 38 23 31 30 24 37 40 31 30 31 35 32 31 27 25 15 35 75 67
207 202 201 113 66 79 86 91 87 85 70 63 62 37 351 49 39 39 39 37 36 36 29 24 27 30 33 33 36 43 35 42 40 33 37 30 17 22 10 14 3 2 323
199 149 81 68 81 92 95 86 79 78 74 75 65 52 25 48 44 41 34 31 31 31 26 26 27 30 32 31 41 41 35 34 25 23 26 13 21 26 24 10 13 9 3
189 118 102 92 95 100 91 90 82 80 73 62 48 45 43 42 39 31 27 26 23 22 23 23 22 32 31 32 29 26 26 29 22 19 16 12 12 12 4 355 356 353 351
124 104 100 91 89 92 88 83 85 65 65 64 62 52 43 36 34 35 27 21 14 16 14 12 19 22 14 13 27 35 32 10 1 4 360 355 353 350 343 338 336 331 318
102 99 95 87 88 86 89 79 74 67 59 47 40 30 26 22 23 22 18 11 8 6 7 2 7 359 5 358 11 22 37 5 7 328 341 338 337 329 329 320 328 315 313
97 96 92 89 87 84 81 77 67 52 42 30 24 18 12 10 14 8 1 3 355 348 344 344 342 343 339 339 29 14 12 8 4 348 328 326 325 322 329 321 317 312 307